EW9999 Weather Reports


time (UTC)temp
C
wind
direction
speed
KPH
gust
KPH
rain 1hr
cm
rain 24hr
cm
rain mn
cm
humidity
%
barometer
mb
20260502163217 11 132 8.0 24.1 0.00 0.00 0.00 21 1023.3
20260502162318 10 124 11.3 22.5 0.00 0.00 0.00 22 1023.3
20260502152017 10 121 8.0 19.3 0.00 0.00 0.00 27 1023.0
20260502151117 9 122 8.0 20.9 0.00 0.00 0.00 27 1023.0
20260502130517 -1 225 1.6 4.8 0.00 0.00 0.00 57 1022.1
20260502122917 -1 229 1.6 4.8 0.00 0.00 0.00 57 1022.0
20260502122017 -1 228 1.6 6.4 0.00 0.00 0.00 57 1021.8
20260502121117 -1 233 1.6 8.0 0.00 0.00 0.00 57 1022.1
20260502120217 -1 236 1.6 4.8 0.00 0.00 0.00 58 1022.0
20260502115317 -1 231 1.6 3.2 0.00 0.00 0.00 57 1022.0
20260502113518 -1 244 1.6 4.8 0.00 0.00 0.00 56 1022.1
20260502112617 -1 218 1.6 4.8 0.00 0.00 0.00 56 1022.2
20260502111717 -1 242 3.2 6.4 0.00 0.00 0.00 56 1022.3
20260502110817 -1 245 1.6 4.8 0.00 0.00 0.00 56 1022.3
20260502105917 -1 207 3.2 8.0 0.00 0.00 0.00 56 1022.5
20260502105018 -1 223 3.2 8.0 0.00 0.00 0.00 56 1022.3
20260502104117 -1 228 3.2 4.8 0.00 0.00 0.00 55 1022.3
20260502103217 -1 229 1.6 4.8 0.00 0.00 0.00 55 1022.4
20260502102317 -1 230 1.6 6.4 0.00 0.00 0.00 55 1022.4
20260502101417 -1 211 1.6 6.4 0.00 0.00 0.00 54 1022.3
20260502100517 -1 204 1.6 3.2 0.00 0.00 0.00 54 1022.3
20260502091117 0 203 0.0 4.8 0.00 0.00 0.00 53 1022.7
20260502090218 0 226 1.6 3.2 0.00 0.00 0.00 52 1022.7
20260502070517 0 230 1.6 4.8 0.00 0.00 0.00 52 1022.8
20260502065618 0 231 1.6 3.2 0.00 0.00 0.00 52 1022.9
20260502064717 0 229 1.6 4.8 0.00 0.00 0.00 51 1023.0
20260502063818 0 223 1.6 4.8 0.00 0.00 0.00 51 1022.9
20260502062917 0 223 1.6 6.4 0.00 0.00 0.00 51 1023.0
20260502062017 1 216 1.6 4.8 0.00 0.00 0.00 51 1022.9
20260502061117 1 210 1.6 6.4 0.00 0.00 0.00 50 1022.8
20260502060217 1 234 1.6 4.8 0.00 0.00 0.00 50 1022.6
20260502055318 1 246 1.6 4.8 0.00 0.00 0.00 50 1022.5
20260502054417 1 236 3.2 6.4 0.00 0.00 0.00 50 1022.5
20260502053518 1 245 1.6 4.8 0.00 0.00 0.00 49 1022.5
20260502052617 1 238 1.6 4.8 0.00 0.00 0.00 49 1022.5
20260502051718 1 222 3.2 6.4 0.00 0.00 0.00 49 1022.3
20260502050818 1 216 1.6 6.4 0.00 0.00 0.00 49 1022.2
20260502045918 2 219 1.6 4.8 0.00 0.00 0.00 48 1022.6
20260502045017 2 224 1.6 4.8 0.00 0.00 0.00 48 1022.4
20260502043217 2 224 1.6 4.8 0.00 0.00 0.00 48 1022.4
20260502042317 2 222 1.6 4.8 0.00 0.00 0.00 47 1022.3
20260502041418 3 217 1.6 4.8 0.00 0.00 0.00 47 1022.2
20260502040517 3 159 1.6 4.8 0.00 0.00 0.00 46 1022.1
20260502035617 3 0 0.0 0.0 0.00 0.00 0.00 45 1022.0
20260502034717 4 0 0.0 0.0 0.00 0.00 0.00 44 1021.9
20260502032018 5 0 0.0 0.0 0.00 0.00 0.00 41 1021.4
20260502031118 6 0 0.0 0.0 0.00 0.00 0.00 40 1021.3
20260502030217 6 0 0.0 0.0 0.00 0.00 0.00 39 1021.1
20260502025317 6 0 0.0 0.0 0.00 0.00 0.00 38 1021.0
20260502024418 7 55 0.0 3.2 0.00 0.00 0.00 37 1020.9
20260502023517 7 78 0.0 3.2 0.00 0.00 0.00 36 1021.1
20260502022617 8 0 0.0 0.0 0.00 0.00 0.00 35 1020.9
20260502021717 8 0 0.0 0.0 0.00 0.00 0.00 33 1020.7
20260502020817 9 56 0.0 3.2 0.00 0.00 0.00 31 1020.4
20260502015917 9 51 0.0 1.6 0.00 0.00 0.00 30 1020.9
20260502015018 10 346 1.6 8.0 0.00 0.00 0.00 29 1020.8
20260502014117 10 346 0.0 4.8 0.00 0.00 0.00 28 1020.8
20260502013217 10 357 0.0 3.2 0.00 0.00 0.00 27 1020.7
20260502012317 11 12 1.6 12.9 0.00 0.00 0.00 26 1020.6
20260502010517 11 72 3.2 14.5 0.00 0.00 0.00 24 1020.6
20260502005617 11 43 3.2 14.5 0.00 0.00 0.00 24 1020.4
20260502004717 11 31 3.2 12.9 0.00 0.00 0.00 25 1020.6
20260502003817 11 26 3.2 12.9 0.00 0.00 0.00 24 1020.5
20260502002917 11 104 1.6 11.3 0.00 0.00 0.00 25 1020.5
20260502002017 11 67 3.2 17.7 0.00 0.00 0.00 24 1020.4
20260502001118 11 17 3.2 12.9 0.00 0.00 0.00 24 1020.9
20260502000218 11 37 4.8 14.5 0.00 0.00 0.00 23 1021.0
20260501235317 11 39 6.4 19.3 0.00 0.00 0.00 24 1021.0
20260501234417 11 50 6.4 16.1 0.00 0.00 0.00 24 1020.9
20260501233517 12 20 8.0 17.7 0.00 0.00 0.00 24 1020.7
20260501232618 12 56 8.0 27.4 0.00 0.00 0.00 24 1020.7
20260501231717 12 48 4.8 20.9 0.00 0.00 0.00 25 1020.6
20260501230817 12 41 6.4 20.9 0.00 0.00 0.00 24 1020.9
20260501224117 12 29 9.7 24.1 0.00 0.00 0.00 24 1021.0
20260501223218 12 33 6.4 25.7 0.00 0.00 0.00 24 1020.8
20260501221418 12 30 6.4 20.9 0.00 0.00 0.00 24 1021.1
20260501220518 12 58 6.4 19.3 0.00 0.00 0.00 24 1021.1
20260501215617 12 6 3.2 14.5 0.00 0.00 0.00 25 1021.1
20260501214717 12 90 6.4 24.1 0.00 0.00 0.00 27 1021.2
20260501185617 11 77 6.4 20.9 0.00 0.00 0.00 32 1021.6
20260501182917 11 57 3.2 16.1 0.00 0.00 0.00 33 1021.6
20260501182018 10 67 8.0 19.3 0.00 0.00 0.00 34 1021.6
20260501181120 10 71 6.4 19.3 0.00 0.00 0.00 33 1021.6
20260501175318 11 36 3.2 12.9 0.00 0.00 0.00 33 1021.6
20260501174417 10 56 4.8 16.1 0.00 0.00 0.00 34 1021.6
20260501173517 10 67 6.4 19.3 0.00 0.00 0.00 34 1021.7
20260501170817 11 41 3.2 14.5 0.00 0.00 0.00 32 1021.5
20260501165917 11 69 1.6 11.3 0.00 0.00 0.00 34 1021.4
20260501165017 10 59 1.6 8.0 0.00 0.00 0.00 37 1021.6
20260501164117 10 75 3.2 12.9 0.00 0.00 0.00 37 1021.5